HULIANWANG DIGUI-84

基本信息
目录编号:
65819
目录名称:
HULIANWANG DIGUI-84
国际标识:
2025-220C
轨道中心:
EARTH
卫星名称:
HULIANWANG DIGUI-84
卫星全名:
HULIANWANG DIGUI-84
卫星状态:
在轨 (已飞行80 天)
发射日期:
2025-09-27 UTC
国别 :
中国 (CN)
星等 :
--
轨道信息
数据来源 国际轨道数据 AOE轨道数据
星历时间 2025-12-15T16:11:04+0800
17小时前
查看轨道信息
2025-12-15T14:00:00+0800
19小时前
查看轨道信息
半长轴 7546.044km 7546.04km
偏心率 0.0001294 0.0001232
轨道倾角 86.493° 86.493°
近地点辐角 91.867° 89.718°
升交点赤经 105.914° 105.944°
平近点角 268.261° 196.704°
近地点 1166.932km 1166.975km
远地点 1168.886km 1168.835km
周期 108.727分钟 108.727分钟
每日圈数 13.244142 13.244152
详细信息
使用方式:
暂无
2D轨道图
3D轨道图
轨道高度分析图
轨道倾角分析图
轨道综合分析图
查看轨道综合分析图